Location: Montr�al
(45.5000°N, 73.5830°W)
Time: 16:24:16
(UTC-04:00)

ISS - All Passes

Search period start: 18 August 2017 00:00
Search period end: 28 August 2017 00:00
Orbit: 401 x 408 km, 51.6° (Epoch: 19 August)

Date Brightness Start Highest point End Pass type
(mag) Time Alt. Az. Time Alt. Az. Time Alt. Az.
18 Aug - 10:36:33 10° SSE 10:37:36 11° SE 10:38:39 10° ESE daylight
18 Aug - 12:10:17 10° SW 12:13:33 73° SSE 12:16:50 10° ENE daylight
18 Aug - 13:47:15 10° WNW 13:50:15 32° NNW 13:53:15 10° NE daylight
18 Aug - 15:24:25 10° NW 15:27:20 28° N 15:30:14 10° ENE daylight
18 Aug - 17:00:53 10° WNW 17:04:10 76° NNE 17:07:25 10° ESE daylight
18 Aug - 18:38:03 10° W 18:40:18 17° SW 18:42:32 10° S daylight
19 Aug - 11:18:15 10° SW 11:21:22 41° SE 11:24:30 10° ENE daylight
19 Aug - 12:54:44 10° W 12:57:52 41° NNW 13:01:01 10° NE daylight
19 Aug - 14:32:02 10° WNW 14:34:53 26° N 14:37:44 10° ENE daylight
19 Aug - 16:08:39 10° NW 16:11:51 49° NNE 16:15:02 10° E daylight
19 Aug - 17:45:19 10° WNW 17:48:13 30° SW 17:51:07 10° SSE daylight
20 Aug - 10:26:33 10° SSW 10:29:14 24° SE 10:31:57 10° E daylight
20 Aug - 12:02:16 10° WSW 12:05:31 59° NNW 12:08:46 10° ENE daylight
20 Aug - 13:39:33 10° WNW 13:42:26 27° N 13:45:18 10° ENE daylight
20 Aug - 15:16:24 10° NW 15:19:29 36° NNE 15:22:32 10° E daylight
20 Aug - 16:52:52 10° WNW 16:56:04 53° SW 16:59:15 10° SE daylight
21 Aug - 09:35:25 10° SSE 09:37:10 14° SE 09:38:57 10° E daylight
21 Aug - 11:09:56 10° WSW 11:13:13 88° SSE 11:16:31 10° ENE daylight
21 Aug - 12:47:01 10° WNW 12:49:59 30° N 12:52:56 10° NE daylight
21 Aug - 14:24:06 10° NW 14:27:03 30° N 14:29:59 10° ENE daylight
21 Aug - 16:00:32 10° WNW 16:03:49 89° N 16:07:05 10° ESE daylight
21 Aug - 17:38:02 10° W 17:39:52 14° SW 17:41:42 10° SSW daylight
22 Aug - 10:17:47 10° SW 10:20:58 51° SE 10:24:10 10° ENE daylight
22 Aug - 11:54:27 10° W 11:57:32 37° NNW 12:00:38 10° NE daylight
22 Aug - 13:31:43 10° WNW 13:34:35 27° N 13:37:26 10° ENE daylight
22 Aug - 15:08:15 10° WNW 15:11:30 57° NNE 15:14:43 10° ESE daylight
22 Aug - 16:45:03 10° W 16:47:48 25° SW 16:50:31 10° SSE daylight
23 Aug - 09:25:53 10° SSW 09:28:46 29° SE 09:31:40 10° ENE daylight
23 Aug - 11:01:55 10° W 11:05:08 51° NNW 11:08:21 10° NE daylight
23 Aug - 12:39:13 10° WNW 12:42:05 27° N 12:44:56 10° ENE daylight
23 Aug - 14:15:58 10° NW 14:19:07 40° NNE 14:22:13 10° E daylight
23 Aug - 15:52:29 10° WNW 15:55:37 43° SW 15:58:43 10° SE daylight
24 Aug - 08:34:27 10° S 08:36:39 17° SE 08:38:51 10° E daylight
24 Aug - 10:09:29 10° WSW 10:12:46 79° NNW 10:16:03 10° ENE daylight
24 Aug - 11:46:39 10° WNW 11:49:35 29° N 11:52:31 10° NE daylight
24 Aug - 13:23:39 10° NW 13:26:39 31° NNE 13:29:38 10° ENE daylight
24 Aug - 15:00:05 10° WNW 15:03:21 77° SSW 15:06:37 10° SE daylight
24 Aug - 16:38:07 10° WSW 16:39:20 12° SW 16:40:32 10° SSW daylight
25 Aug - 09:17:12 10° SW 09:20:27 62° SSE 09:23:42 10° ENE daylight
25 Aug - 10:54:03 10° W 10:57:06 34° NNW 11:00:09 10° NE daylight
25 Aug - 12:31:15 10° NW 12:34:09 28° N 12:37:02 10° ENE daylight
25 Aug - 14:07:45 10° WNW 14:11:02 66° NNE 14:14:16 10° ESE daylight
25 Aug - 15:44:43 10° W 15:47:14 20° SW 15:49:44 10° S daylight
26 Aug - 08:25:10 10° SSW 08:28:12 35° SE 08:31:14 10° ENE daylight
26 Aug - 10:01:27 10° W 10:04:38 45° NNW 10:07:49 10° NE daylight
26 Aug - 11:38:46 10° WNW 11:41:37 26° N 11:44:29 10° ENE daylight
26 Aug - 13:15:26 10° NW 13:18:36 44° NNE 13:21:46 10° E daylight
26 Aug - 14:52:01 10° WNW 14:55:03 35° SW 14:58:04 10° SSE daylight
27 Aug - 07:33:30 10° S 07:36:01 20° SE 07:38:31 10° E daylight
27 Aug - 09:08:56 10° WSW 09:12:13 67° NNW 09:15:30 10° ENE daylight
27 Aug - 10:46:10 10° WNW 10:49:04 28° N 10:51:59 10° NE daylight
27 Aug - 12:23:05 10° NW 12:26:08 34° NNE 12:29:10 10° E daylight
27 Aug - 13:59:31 10° WNW 14:02:46 63° SSW 14:06:00 10° SE daylight
